Weather History for Springfield, CO

Change the Weather History Date:

Sunday, August 17, 2014

  Actual Average Record
Temperature  
Mean Temperature 78 °F -  
Max Temperature 96 °F 88 °F 96 °F (2014)
Min Temperature 59 °F 61 °F 50 °F (2012)
Degree Days  
Heating Degree Days 0 0  
Month to date heating degree days 0 0  
Since 1 June heating degree days 28 23  
Since 1 July heating degree days 6 2  
Cooling Degree Days 13 9  
Month to date cooling degree days 170 176  
Year to date cooling degree days 765 787  
Since 1 June cooling degree days 707 733  
Growing Degree Days 28 (Base 50)    
Moisture  
Dew Point 48 °F    
Average Humidity 49    
Maximum Humidity 84    
Minimum Humidity 14    
Precipitation  
Precipitation 0.01 in 0.11 in 0.75 in (2011)
Month to date precipitation 0.44 1.63  
Year to date precipitation 9.85 12.53  
Sea Level Pressure  
Sea Level Pressure 29.89 in    
Wind  
Wind Speed 8 mph (SW)    
Max Wind Speed 25 mph    
Max Gust Speed 39 mph    
T = Trace of Precipitation, MM = Missing Value Source: NWS Daily Summary

Daily Weather History Graph

Daily Weather History Graph

Search for Another Location

Airport:

Trip Planner

Search our weather history database for the weather conditions in past years. The results will help you decide how hot, cold, wet, or windy it might be!

Date:

Astronomy

Aug. 17, 2014 Rise Set
Actual Time 6:08 AM MDT 7:39 PM MDT
Civil Twilight 5:40 AM MDT 8:07 PM MDT
Nautical Twilight 5:07 AM MDT 8:40 PM MDT
Astronomical Twilight 4:32 AM MDT 9:15 PM MDT
Moon No Moon Rise 1:46 PM MDT (8/17)
Length of Visible Light 14h 26m
Length of Day
13h 31m
Waning Gibbous, 48% of the Moon is Illuminated
Aug 17
Waning Gibbous
Aug 25
New
Sep 2
First Quarter
Sep 8
Full
Sep 15
Last Quarter

Hourly Weather History & Observations

Time (MDT) Temp. Dew Point Humidity Pressure Visibility Wind Dir Wind Speed Gust Speed Precip Events Conditions
12:56 AM 64.0 °F 57.0 °F 78% 29.91 in - WSW 9.2 mph - N/A   Unknown
1:56 AM 64.0 °F 57.0 °F 78% 29.90 in - WSW 10.4 mph - N/A   Unknown
2:56 AM 63.0 °F 57.0 °F 81% 29.89 in - WSW 9.2 mph - N/A   Unknown
3:56 AM 63.0 °F 55.9 °F 78% 29.90 in - WSW 9.2 mph - N/A   Unknown
4:56 AM 62.1 °F 55.0 °F 78% 29.91 in - West 4.6 mph - N/A   Unknown
5:56 AM 61.0 °F 55.0 °F 81% 29.93 in - West 4.6 mph - N/A   Unknown
6:56 AM 63.0 °F 55.9 °F 78% 29.94 in - West 4.6 mph - N/A   Unknown
7:56 AM 75.9 °F 55.0 °F 48% 29.92 in - West 8.1 mph - N/A   Unknown
8:56 AM 86.0 °F 51.1 °F 30% 29.91 in - West 8.1 mph - N/A   Unknown
9:56 AM 90.0 °F 46.9 °F 23% 29.91 in - WSW 6.9 mph - N/A   Unknown
10:56 AM 90.0 °F 41.0 °F 18% 29.91 in - WSW 4.6 mph - N/A   Unknown
11:56 AM 93.0 °F 41.0 °F 16% 29.90 in - Variable 6.9 mph - N/A   Unknown
12:56 PM 95.0 °F 42.1 °F 16% 29.88 in - South 8.1 mph - N/A   Unknown
1:56 PM 93.9 °F 41.0 °F 16% 29.88 in - South 6.9 mph - N/A   Unknown
2:56 PM 93.9 °F 39.0 °F 15% 29.86 in - Variable 3.5 mph - N/A   Unknown
3:56 PM 91.0 °F 39.0 °F 16% 29.86 in - SE 9.2 mph - N/A   Unknown
4:56 PM 93.9 °F 37.9 °F 14% 29.83 in - South 5.8 mph - N/A   Unknown
5:56 PM 91.9 °F 42.1 °F 18% 29.82 in - South 13.8 mph 19.6 mph N/A   Unknown
6:56 PM 88.0 °F 43.0 °F 21% 29.82 in - South 11.5 mph - N/A   Unknown
7:56 PM 75.9 °F 46.9 °F 36% 29.85 in - South 9.2 mph - N/A   Unknown
8:56 PM 75.0 °F 46.0 °F 36% 29.84 in - South 10.4 mph - N/A   Unknown
9:48 PM 81.0 °F 44.1 °F 27% 30.10 in - NNW 19.6 mph 26.5 mph N/A   Unknown
9:56 PM 78.1 °F 48.0 °F 35% 29.88 in - WNW 17.3 mph 25.3 mph N/A   Unknown
10:56 PM 70.0 °F 54.0 °F 57% 29.89 in - West 8.1 mph - 0.01 in   Unknown
11:56 PM 71.1 °F 53.1 °F 53% 29.86 in - WSW 8.1 mph - N/A   Unknown